Location: Doschendorf
(50.0069°N, 11.0602°E)
Time: 08:44:41
(UTC+00:00)

ATLAS 3B R/B - Pass Details

Date: 17 November 2019
Orbit: 1030 x 1165 km, 63.8° (Epoch: 02 December)

Event Time Altitude Azimuth Distance (km) Brightness Sun altitude
Rises 19:22:14 0° 316° (NW) 3,792 6.3 -37.0°
Reaches altitude 10° 19:24:55 10° 321° (NW) 2,841 5.5 -37.4°
Enters shadow 19:28:32 32° 338° (NNW) 1,696 3.9 -38.0°
